Regional Weather Roundup
Issued by NWS Sioux Falls, SD

Home | Current Version | Previous Version | Text Only | Print | Product List | Glossary Off
Versions: 1 2 3 4 5 6 7 8 9 10 11 12 13 14 15 16 17 18 19 20 21 22 23 24 25 26 27 28 29 30 31 32 33 34 35 36 37 38 39 40 41 42 43 44 45 46 47 48 49 50

000
ASUS43 KFSD 210102
RWRFSD

WEATHER ROUNDUP FOR SE SOUTH DAKOTA/SW MINNESOTA/NW IOWA
NATIONAL WEATHER SERVICE SIOUX FALLS SD
800 PM CDT SUN AUG 20 2017

NOTE: "FAIR" INDICATES FEW OR NO CLOUDS BELOW 12,000 FEET WITH NO
SIGNIFICANT WEATHER AND OR OBSTRUCTIONS TO VISIBILITY.


SDZ038>040-050-052>070-210200-
SOUTHEAST SOUTH DAKOTA

CITY           SKY/WX    TMP DP  RH WIND       PRES   REMARKS
BROOKINGS      CLEAR     69  56  62 E8        30.02F
CHAMBERLAIN    CLEAR     74  62  66 NE8       29.98S
HURON          CLEAR     70  55  59 SE10      29.97F
MADISON        MOCLDY    68  63  83 NE12      30.02R
MITCHELL       CLEAR     74  65  73 NE7       29.98R
SIOUX FALLS    PTCLDY    74  63  68 NE12      29.99R
WINNER         FAIR      76  59  55 NE9       29.98S
YANKTON        PTCLDY    79  72  79 E7        29.95R
$$

MNZ071-072-080-081-089-090-097-098-210200-
SOUTHWEST MINNESOTA

CITY           SKY/WX    TMP DP  RH WIND       PRES   REMARKS
FAIRMONT       CLEAR     76  72  87 N6        29.99R
JACKSON        CLOUDY    73  68  83 CALM      30.01R
LUVERNE        MOCLDY    72  61  68 NE8       30.01R
MARSHALL       MOCLDY    68  63  84 N5        30.02S
MONTEVIDEO     CLOUDY    70  61  73 CALM      30.01F
PIPESTONE      CLOUDY    72  63  73 NE7       30.03R
REDWOOD FALLS  CLOUDY    71  64  78 NW6       30.01R
TRACY          CLOUDY    69  65  88 N7        30.03R
WINDOM         CLEAR     72  66  83 N5        30.02R
WORTHINGTON    CLOUDY    72  65  78 N12       30.03R
$$

IAZ001>003-012>014-020>022-031-032-NEZ013-014-SDZ071-210200-
NORTHWEST IOWA

CITY           SKY/WX    TMP DP  RH WIND       PRES   REMARKS
DENISON        CLEAR     79  70  73 CALM      29.99S
ESTHERVILLE    CLOUDY    78  72  81 CALM      29.98S
ORANGE CITY    CLEAR     82  72  69 CALM      29.98S
SHELDON        MOCLDY    79  72  78 CALM      29.97S
SIOUX CITY     MOCLDY    81  69  67 SE3       29.95S
SPENCER        MOCLDY    81  68  64 CALM      29.98S
STORM LAKE     PTCLDY    77  70  78 W3        29.99S
$$

ABBREVIATIONS USED IN REMARKS
   TC - TEMPERATURE IN CELSIUS
  WCI - WIND CHILL INDEX
   HX - HEAT INDEX
  VSB - VISIBILITY





USA.gov is the U.S. government's official web portal to all federal, state and local government web resources and services.